Temp_Advection
nan nan nan nan nan nan nan nan nan nan nan nan nan nan nan nan nan nan nan nan nan nan nan nan nan nan nan nan nan nan nan nan nan nan nan nan nan nan nan nan nan nan nan nan nan nan nan nan nan nan nan nan nan nan
nan 1 1 1 2 2 2 2 2 1 1 1 -0 -0 0 0 0 0 -1 -0 -1 -4 -2 1 -0 0 0 0 0 0 -0 -0 -0 -0 -0 -0 -0 -0 -0 0 0 0 0 0 0 0 0 -0 0 0 0 0 -0 nan
nan 1 1 1 0 0 1 1 0 -0 -0 0 0 -0 -0 -0 0 -0 -1 1 -3 -6 0 -0 -0 1 0 0 0 -0 -0 -0 -0 -0 -0 -0 -0 -0 -0 -0 -0 -0 -0 0 -0 -0 -0 0 0 0 0 0 -0 nan
nan 0 0 0 0 0 0 -0 -0 -0 -0 -0 0 0 -0 -1 0 0 -1 -0 -1 -2 -1 -1 0 -0 -0 0 0 -0 -0 -0 0 0 -0 -0 -0 -0 -0 0 0 -0 0 0 -0 -1 -1 -0 0 0 -0 0 0 nan
nan -0 -0 -0 -0 0 0 0 -0 -0 -0 -0 -0 0 0 -0 0 -0 -1 -0 -0 -1 -1 -0 -0 -0 0 -0 -0 -0 0 0 -0 -0 -1 -0 -0 -0 -0 -0 -0 -0 0 -0 -0 0 -0 -1 -0 0 0 -0 0 nan
nan -0 -0 -0 0 0 0 0 0 0 -1 -1 -1 -0 0 1 1 -0 -1 -1 -0 -2 -1 -0 -0 0 0 -0 -0 -0 -0 -0 -0 -0 -0 -0 -0 -0 -0 -0 -0 -0 0 1 -0 0 1 0 -1 -0 -0 0 1 nan
nan 0 0 -0 0 0 0 0 -0 1 1 -0 -1 -0 -0 0 0 -2 -0 1 0 -1 -0 -0 -0 -0 -0 -0 -0 -0 -0 -0 -0 -0 -0 0 -0 0 -0 -0 -1 1 1 1 1 1 -0 -1 0 0 0 -0 -0 nan
nan 0 -0 0 0 1 0 -0 0 -0 -0 -0 0 0 -0 -1 -1 -1 0 0 -0 -1 -1 -0 -0 -0 -0 -0 -0 -0 -0 -0 -0 -0 -0 -0 0 0 -0 -4 -0 1 1 1 0 1 1 1 0 -1 0 1 -0 nan
nan -1 -0 0 -0 -0 -0 0 0 0 -0 -0 -0 0 0 -3 -2 0 1 0 -1 -2 -1 -0 -0 -0 -0 -0 -0 -0 -0 -0 -0 -0 -0 0 0 -0 -2 -1 0 0 1 1 0 0 1 0 -0 -0 -0 0 0 nan
nan -0 -1 0 0 -1 -1 -0 1 0 0 1 0 -1 -1 -0 0 -0 -0 -1 -2 -2 -1 -0 -0 -0 -0 -1 -0 -0 -0 -0 -0 -0 -0 0 -0 -3 -1 0 1 1 1 1 1 0 0 1 0 -0 -0 0 0 nan
nan 0 1 -0 -0 -0 -0 -0 -0 -0 0 -0 -1 -1 0 -0 -0 -1 -1 -1 -1 -1 -0 -0 -0 -0 -0 -0 -0 -0 -0 -0 -0 -0 -0 0 -0 -1 -0 1 1 1 1 1 1 1 1 1 0 0 0 0 -0 nan
nan -0 0 1 -0 -0 -0 -0 0 0 -0 -1 -1 -1 -0 -1 -1 -2 -0 -0 -1 -0 -0 -0 -0 -0 -0 0 0 0 0 -0 -0 -0 -0 -0 -1 -1 0 0 0 0 1 1 1 1 1 1 1 1 1 0 0 nan
nan 1 0 -0 -0 -0 -0 0 0 -0 -0 -0 -1 -1 -1 -2 -2 -1 -0 -0 0 0 -0 -0 -0 -0 -0 0 0 0 -0 -0 0 -0 -0 -1 -1 1 1 0 1 1 1 1 1 1 0 0 1 1 0 0 1 nan
nan -0 -0 0 0 -0 -0 0 -0 -0 -0 -2 -2 -2 -0 -0 0 -0 0 0 0 -0 -0 -0 0 0 -0 -0 0 -0 -0 0 0 -0 -1 -0 -1 1 1 1 0 0 1 1 1 1 1 1 0 1 1 1 0 nan
nan -0 -0 0 -0 -0 -0 -0 0 -0 -2 -1 -1 -0 0 0 -0 0 0 -0 -0 0 -0 -0 -0 -0 -0 -0 0 0 0 -0 -1 -0 -0 -0 1 1 0 0 1 1 1 1 1 1 1 1 1 0 1 1 1 nan
nan -1 -1 -0 -0 -0 0 1 -1 -6 -2 -1 -1 0 0 -0 -0 -0 0 -0 0 0 0 0 0 -0 -0 0 0 0 0 -1 -0 0 2 1 1 0 0 0 0 1 1 1 1 1 1 1 1 1 0 1 1 nan
nan -3 -0 1 1 1 1 -2 -6 -3 -1 -0 -0 0 0 -0 -0 0 0 0 0 0 0 0 -0 -0 0 0 -0 -0 -0 -0 0 0 -0 0 1 1 1 0 0 0 1 1 0 1 1 1 1 1 0 1 1 nan
nan -0 1 1 1 -0 -3 -5 -2 -1 -1 -0 -0 0 0 0 0 0 1 1 0 0 0 0 0 0 0 -0 -0 -0 1 1 0 0 0 0 0 1 0 1 0 0 0 1 1 0 0 0 1 1 1 0 1 nan
nan 1 0 0 -0 -1 -1 -1 -1 -1 -0 0 0 0 0 0 1 1 0 0 0 0 0 0 0 -0 -0 -0 0 -0 0 0 0 0 -0 0 1 1 0 0 0 0 0 0 0 0 0 0 0 1 1 1 1 nan
nan 0 -0 -0 -0 -1 -1 -1 -0 -0 -0 0 0 0 0 0 0 0 1 1 0 0 0 0 -0 0 0 0 1 1 0 1 1 0 -0 0 1 0 0 1 0 0 0 -0 -0 -0 -0 -0 0 0 0 0 0 nan
nan -1 0 -0 -3 -2 -1 -0 -0 -0 0 0 0 0 0 0 0 0 0 0 0 0 0 0 1 0 1 1 1 1 1 1 1 1 1 -0 -0 0 0 0 0 0 0 0 0 -0 -0 -0 -0 0 0 -0 -0 nan
nan 0 -0 -1 -1 -1 -1 -0 -0 0 0 -0 0 0 -0 -0 -0 -0 0 0 0 0 0 0 1 1 1 1 1 1 1 1 1 1 1 1 0 0 0 0 0 0 0 0 0 0 -0 -0 -0 -0 -0 -0 -1 nan
nan -1 -1 -0 -0 -1 -1 -0 -0 -0 -0 -0 -0 -0 -0 -0 0 -0 -0 0 0 1 1 1 0 1 1 1 0 1 1 1 0 2 1 1 0 1 0 -0 0 0 0 0 0 -0 -0 -1 -1 -0 -0 -1 -1 nan
nan -1 -0 -1 -1 -1 -0 -0 -0 -0 -1 -1 -1 -0 -1 -1 -1 -0 -0 -0 0 1 1 1 1 0 -0 0 0 1 1 0 -0 -0 2 1 0 0 0 -0 -0 0 0 -0 -0 -1 -1 -0 -1 -1 -1 -1 -0 nan
nan -2 -1 -1 -0 -0 -1 -1 -1 -1 -0 -0 0 0 -0 -0 -0 -0 -1 -1 0 1 0 0 0 1 1 -0 0 0 0 1 1 -2 1 1 1 -0 -0 0 0 0 -1 -1 -1 -1 -0 -1 -1 -1 -1 -1 -1 nan
nan 0 -0 -0 -0 -0 -0 -0 -0 -0 0 -0 -0 0 -0 0 0 -1 -0 1 1 1 1 1 0 0 1 1 1 0 1 2 1 -0 -1 0 -0 0 0 0 -0 -0 -1 -1 -1 -1 -1 -1 -1 -1 -1 -0 -0 nan
nan 1 0 -0 -0 -0 -0 0 0 0 0 0 -0 -0 -0 0 -1 -1 0 1 1 1 1 1 1 1 0 1 1 0 0 1 1 1 -1 0 -0 -0 0 -1 -1 -1 -1 -1 -1 -1 -1 -1 -1 -1 -0 -0 -0 nan
nan 0 -0 0 0 0 0 0 0 0 0 1 1 0 -0 -1 -1 -1 0 0 0 0 1 1 1 1 1 1 0 -0 -0 -0 1 0 -0 -1 -1 -0 -1 -2 -2 -1 -1 -1 -1 -1 -1 -1 -1 -0 -0 -0 0 nan
nan -0 0 0 0 0 0 0 0 0 0 0 0 -0 -0 -0 0 0 0 0 0 0 -0 -0 0 -0 -0 -1 -0 1 0 -1 -1 -2 -2 -2 -0 -1 -2 -1 -1 -2 -1 -1 -0 -0 -1 -0 -0 0 0 -0 -0 nan
nan 0 0 0 0 0 0 0 0 0 1 0 -0 -1 -1 -1 0 0 0 0 0 0 0 0 0 -0 -1 -1 -1 -0 -0 -0 -0 -1 -1 -0 -0 -1 -1 -1 -1 -0 0 1 0 -0 0 0 -0 0 -0 -1 -0 nan
nan 0 0 0 0 0 0 0 0 0 0 0 1 0 -0 -1 -0 0 0 0 0 1 0 0 0 0 0 1 -0 -1 -1 -1 0 0 -1 -1 -1 -1 -1 -0 1 1 1 0 0 0 1 -0 -0 -0 -0 -0 -0 nan
nan 0 0 -0 0 0 -0 0 -0 -0 -0 -0 -0 0 0 -0 -0 0 0 0 0 0 0 0 0 0 1 0 0 -0 -0 0 0 -1 0 -1 -1 0 1 1 1 1 -0 -0 -0 0 0 0 0 0 -0 -0 0 nan
nan nan nan nan nan nan nan nan nan nan nan nan nan nan nan nan nan nan nan nan nan nan nan nan nan nan nan nan nan nan nan nan nan nan nan nan nan nan nan nan nan nan nan nan nan nan nan nan nan nan nan nan nan nan
Wind_Speed
20 21 21 22 21 21 21 19 23 27 32 42 35 24 18 14 14 16 16 11 12 12 22 16 19 16 6 8 2 0 2 2 1 0 1 2 2 2 2 2 2 1 1 2 3 3 9 2 2 4 2 8 10 13
11 14 10 14 17 23 22 27 38 37 33 29 25 22 19 18 15 13 21 18 21 23 26 25 25 20 14 6 5 5 4 6 5 2 3 2 2 2 2 3 4 2 4 3 4 4 4 3 7 12 11 12 13 16
23 24 27 31 39 41 40 37 34 32 33 29 27 24 22 21 18 11 24 22 26 34 26 17 16 21 14 13 7 4 4 3 4 5 3 1 2 2 1 2 1 1 2 1 5 3 3 7 11 12 13 12 17 19
41 41 40 38 36 34 31 29 31 33 31 30 27 24 22 20 20 20 25 16 18 15 8 12 13 21 18 14 10 8 9 5 5 3 5 2 2 6 2 2 1 2 2 1 6 11 15 9 6 9 20 24 28 30
34 34 33 31 29 29 32 35 36 35 32 26 25 23 19 17 18 19 21 18 10 5 7 10 11 16 15 17 15 11 8 7 6 4 5 1 3 5 2 2 3 6 4 3 4 5 10 22 26 24 34 38 35 32
30 29 28 27 30 35 43 37 36 30 25 26 27 26 28 26 24 21 14 23 26 26 10 3 6 13 16 14 17 17 11 11 9 5 4 3 3 1 1 2 4 9 13 17 14 19 27 37 37 37 34 29 33 35
26 26 27 31 32 35 32 29 29 28 24 23 21 21 18 16 11 11 8 9 11 10 8 8 5 9 10 12 14 12 15 11 7 4 3 2 1 2 1 2 7 15 20 22 25 27 31 35 32 34 33 41 42 40
25 28 30 33 31 29 27 26 24 24 24 23 21 19 17 23 34 31 22 13 10 15 10 4 3 5 16 10 5 11 6 6 5 2 1 2 2 3 3 17 16 20 23 25 26 23 32 38 39 42 41 39 39 39
34 36 34 28 27 25 27 27 26 25 25 25 26 28 29 31 25 25 28 28 21 13 8 7 4 3 11 11 6 6 5 2 2 2 2 2 2 3 10 14 14 19 19 30 34 35 38 40 42 41 37 36 35 38
26 25 30 30 29 28 27 26 25 28 29 26 21 11 9 10 12 9 7 8 13 14 11 7 10 3 8 9 6 7 4 1 2 1 6 2 3 18 19 21 20 25 30 31 35 37 33 35 36 42 43 41 39 41
33 32 29 28 24 21 19 19 20 21 12 6 7 9 14 11 8 8 8 10 11 7 8 7 9 7 10 4 3 6 3 3 2 3 1 3 3 6 10 16 24 31 34 33 32 36 37 38 40 41 42 39 38 38
31 32 28 23 18 14 13 10 6 8 12 14 19 16 9 9 9 10 4 5 8 2 6 6 9 5 5 4 3 5 1 2 2 8 2 3 4 10 18 27 33 32 32 35 36 37 39 40 40 40 42 42 41 40
31 28 23 19 18 21 19 20 23 20 14 9 7 7 9 10 12 7 6 4 3 7 7 10 6 6 4 3 3 3 3 2 7 2 3 4 12 19 28 33 35 36 35 34 36 36 37 39 39 38 40 41 40 41
28 23 20 20 17 14 11 10 8 6 5 10 9 9 5 6 4 3 2 4 3 5 10 10 5 3 3 3 2 3 1 2 4 2 5 4 24 36 40 38 36 40 38 38 40 39 39 40 40 40 39 39 38 40
24 21 17 13 8 8 6 3 4 4 9 9 9 6 5 6 6 3 4 4 5 6 8 4 4 2 3 3 2 2 6 4 4 4 4 27 40 41 41 40 40 41 41 42 41 41 41 40 40 41 38 37 36 37
21 19 20 14 14 16 20 24 33 31 11 9 12 7 3 3 8 7 6 6 8 4 4 3 3 3 3 0 4 1 1 4 4 11 36 41 43 44 44 44 45 44 44 43 43 42 41 40 38 37 35 33 31 31
14 29 23 25 25 26 30 37 28 16 11 8 8 12 7 5 6 6 8 9 8 6 5 3 4 2 4 2 2 3 3 4 30 40 42 41 42 44 46 46 46 45 45 44 43 41 40 38 35 35 37 35 33 32
37 31 32 32 32 35 41 32 13 12 12 11 7 10 12 10 6 9 10 12 7 4 3 1 1 3 2 3 3 6 24 34 35 37 41 44 46 46 43 43 44 44 44 42 40 39 37 36 38 38 37 35 35 33
22 17 15 14 14 25 13 16 14 9 10 7 11 11 9 11 14 13 12 12 8 5 2 2 1 1 2 7 19 31 33 35 39 45 46 46 41 39 43 43 42 41 40 41 40 39 35 37 36 35 36 36 35 34
26 27 21 13 11 16 10 10 9 9 6 6 9 8 6 7 11 12 13 16 9 3 3 2 3 10 14 28 31 35 36 37 39 41 44 44 43 43 43 42 42 43 40 39 38 34 35 35 38 37 36 32 34 36
21 23 25 28 36 19 11 8 9 5 5 5 10 7 5 9 10 15 14 14 5 4 5 9 20 28 30 30 28 29 32 33 36 37 43 47 47 44 45 43 42 41 38 38 38 40 38 37 40 37 35 29 28 33
29 28 29 25 16 12 13 12 7 5 4 4 7 8 5 6 9 9 16 5 5 8 14 23 28 33 34 32 32 31 34 37 41 40 39 38 42 44 45 45 43 41 40 40 40 41 43 34 35 27 27 29 32 28
18 15 13 12 9 9 6 10 5 6 4 6 6 4 4 7 9 15 5 5 6 24 26 29 33 35 36 36 38 39 37 38 42 44 44 44 43 41 41 43 41 41 42 43 43 38 32 32 34 20 30 37 28 26
15 8 8 8 11 6 5 6 6 6 5 6 7 5 7 8 12 5 4 6 21 29 32 35 39 43 43 40 42 43 42 43 44 47 44 44 44 45 43 41 42 41 41 41 33 36 37 34 29 25 34 33 27 27
5 12 8 9 8 4 7 6 7 7 3 5 6 3 6 8 5 4 2 9 27 34 36 38 39 39 40 43 46 46 44 42 43 47 47 45 43 43 41 39 40 39 35 39 39 36 35 34 26 25 34 28 26 26
9 12 8 7 5 4 3 3 4 3 3 4 3 7 5 5 4 5 5 22 28 32 35 37 39 42 45 42 46 48 47 44 45 45 46 41 39 38 41 43 45 39 43 38 36 36 33 31 25 32 32 26 25 25
6 7 8 8 4 4 4 4 3 2 2 1 5 6 5 4 3 5 17 24 29 31 32 33 36 37 39 42 43 42 43 43 42 40 43 40 40 40 41 40 38 40 38 36 35 33 31 29 27 31 26 27 24 25
7 5 4 5 5 5 2 2 3 3 3 4 7 2 1 3 4 12 21 23 25 29 31 32 35 37 38 40 42 46 46 46 49 46 43 43 46 44 39 40 39 34 34 31 31 32 29 28 29 28 26 27 24 26
6 4 4 4 3 3 3 4 4 3 6 5 4 4 4 6 14 16 18 19 24 29 31 34 36 36 37 41 44 46 46 47 50 53 54 54 54 51 46 42 40 37 33 31 29 28 27 25 26 26 26 29 26 26
5 8 4 4 3 3 2 6 9 12 12 9 7 8 10 12 9 13 17 20 25 30 31 34 35 38 41 44 48 49 46 43 40 40 44 47 43 41 39 42 37 36 32 33 32 30 27 31 31 32 32 32 32 32
5 7 4 3 2 3 7 13 11 10 8 6 8 8 11 12 11 15 19 21 25 28 31 34 35 36 39 43 45 48 48 45 43 41 39 36 37 37 36 41 36 36 33 32 32 31 31 33 33 34 34 33 33 33
5 6 6 3 3 6 10 8 8 5 5 6 5 8 11 10 8 15 20 22 27 29 30 31 35 37 36 37 37 35 35 38 43 42 36 35 35 35 36 39 37 34 31 31 31 32 32 32 33 34 35 35 33 33
4 5 6 5 4 4 5 9 3 4 4 4 4 9 9 7 5 10 21 21 26 28 30 31 32 33 34 35 36 36 38 39 40 40 38 32 31 33 34 34 32 30 30 31 32 32 33 33 34 34 35 36 35 35
Wind_Direction
264 256 251 246 246 260 254 238 210 189 172 163 143 136 136 146 169 186 131 136 151 101 53 72 74 61 56 31 50 96 166 53 265 299 287 310 354 49 351 56 96 85 66 264 294 300 274 46 221 218 288 312 308 315
253 226 225 243 201 175 170 161 144 129 122 120 126 128 129 137 139 159 121 102 115 97 102 82 75 71 69 73 99 47 75 53 23 316 35 331 329 47 79 283 326 277 179 213 173 238 157 242 256 276 288 290 304 306
149 140 134 127 120 114 112 111 112 117 120 120 113 103 93 108 103 120 117 126 122 103 81 72 37 56 69 63 69 93 73 87 57 49 2 331 63 356 295 342 3 102 119 232 25 337 299 277 266 286 271 284 291 293
102 103 103 105 106 109 112 116 117 121 123 116 111 98 97 104 119 128 123 118 115 110 95 61 66 52 38 50 63 85 103 75 99 83 52 47 46 23 346 228 227 162 145 235 266 291 313 281 264 268 294 290 290 292
104 106 106 104 105 104 107 111 111 124 126 113 103 100 101 106 124 122 107 103 102 116 116 136 56 46 49 44 55 75 101 108 90 71 37 50 55 9 110 32 269 172 199 182 252 227 276 276 289 287 291 292 293 293
100 102 103 102 103 112 120 120 124 126 116 106 105 110 115 122 125 114 72 76 92 99 97 90 80 42 49 44 46 44 52 61 78 70 76 81 61 57 334 267 202 235 259 263 254 282 281 285 290 294 292 291 297 296
100 100 104 108 113 122 123 127 126 120 116 112 110 115 124 134 145 73 84 95 85 81 89 119 89 25 51 31 33 43 30 56 66 71 53 38 188 325 154 249 250 280 292 289 286 287 281 290 286 300 291 293 297 294
107 113 113 117 123 127 116 109 106 106 109 112 115 113 110 106 103 88 77 75 81 77 78 72 97 61 22 12 27 20 23 32 50 88 153 347 230 216 258 241 275 295 294 286 290 286 285 299 297 298 301 300 298 296
123 119 115 111 106 97 99 103 105 106 106 104 103 107 107 85 75 79 77 66 67 72 89 60 17 4 357 10 28 15 3 54 30 26 71 307 228 234 227 242 279 312 297 297 302 297 297 293 300 303 303 301 294 292
128 119 105 102 100 98 100 105 111 113 113 114 109 82 60 59 77 61 54 37 34 40 53 59 3 17 6 344 29 4 11 32 354 275 307 215 261 259 253 256 293 309 311 308 301 296 296 291 291 295 297 298 294 293
112 109 101 98 97 99 103 111 123 129 114 45 57 72 93 63 44 48 50 41 16 47 31 20 27 338 3 28 327 10 298 337 15 300 46 286 278 249 309 293 304 309 312 308 302 300 296 291 291 291 291 289 288 287
107 108 104 98 88 92 104 97 70 139 101 102 109 89 52 38 46 64 38 31 40 48 8 357 342 352 324 352 305 352 318 12 287 334 40 279 254 287 313 314 314 313 309 305 303 299 299 296 293 290 290 290 290 289
117 113 105 93 82 83 94 107 96 94 100 83 61 62 21 12 45 50 16 357 37 358 2 344 326 338 333 342 288 311 23 243 306 25 242 234 276 313 323 318 314 314 312 307 305 305 302 300 301 297 294 298 297 296
112 109 102 97 97 89 78 80 81 79 63 57 48 36 55 18 48 33 17 4 330 322 328 327 304 351 333 331 325 33 255 16 355 305 243 261 322 319 318 317 314 314 315 312 312 313 310 309 308 309 305 303 300 298
101 89 82 79 65 52 57 70 89 106 68 65 51 51 54 74 53 33 17 352 327 315 325 337 290 345 5 1 36 322 359 310 215 252 285 310 313 313 313 315 313 313 314 313 316 315 314 314 311 310 313 311 305 303
88 74 61 67 73 81 93 106 102 85 64 62 51 68 87 83 44 29 22 9 337 357 355 360 301 19 18 111 7 337 10 255 267 297 303 307 308 309 311 313 314 315 316 316 318 318 316 315 314 316 318 319 320 317
83 84 86 93 96 99 98 89 72 50 57 58 50 52 69 69 33 14 18 1 12 12 20 344 44 260 285 321 280 187 234 266 298 301 303 304 304 307 310 311 314 316 316 318 319 319 319 320 321 321 319 326 324 321
101 104 102 96 93 93 75 62 66 60 61 54 67 53 61 54 43 26 23 14 26 12 348 30 343 13 337 298 278 273 295 299 298 298 301 305 309 313 314 312 314 317 319 318 317 321 323 323 320 317 317 320 322 322
103 91 92 86 93 93 80 44 56 74 60 60 48 45 50 40 31 27 23 14 11 18 46 -0 321 305 271 259 281 295 300 303 305 309 309 313 312 312 315 319 318 316 319 322 325 324 322 322 320 320 319 319 314 319
97 101 97 90 93 79 72 57 57 73 58 40 29 29 40 27 23 19 14 10 11 24 357 317 251 279 284 301 305 303 309 314 308 306 309 316 320 322 319 319 323 327 324 326 325 325 323 320 322 323 322 319 320 318
104 88 87 103 80 66 74 60 65 65 71 56 13 12 9 2 6 4 2 351 18 7 339 314 316 331 333 333 334 330 329 329 318 312 310 313 321 320 325 329 330 330 327 325 323 322 322 318 322 327 322 335 334 326
89 82 76 68 66 62 55 39 68 49 57 23 6 7 10 0 350 349 332 351 342 341 335 333 336 339 343 348 347 349 344 339 334 325 323 323 320 326 329 334 332 329 328 326 323 320 321 328 336 334 343 340 343 340
70 55 50 42 62 55 55 29 47 30 41 9 5 10 356 349 336 339 333 337 331 349 348 346 348 351 349 352 353 356 352 341 337 337 337 336 334 333 333 338 337 330 326 328 330 330 339 344 348 341 343 349 354 354
30 33 41 50 44 60 37 37 29 21 29 25 9 345 344 324 333 357 299 327 346 354 356 354 352 350 353 358 357 356 354 349 345 349 351 342 336 342 345 340 338 337 335 334 347 352 351 347 345 351 355 1 4 350
47 22 45 40 35 50 41 21 15 31 25 355 358 333 339 331 340 336 285 320 345 353 353 353 351 352 351 353 354 354 358 352 346 345 358 351 346 346 342 342 342 346 356 357 356 355 356 1 1 3 2 7 4 2
66 34 39 29 30 51 36 36 31 10 350 346 336 331 335 337 2 290 310 340 343 346 349 350 349 350 356 356 351 354 354 355 353 349 358 359 357 349 342 339 341 355 356 3 1 2 6 5 12 5 5 13 12 14
63 50 35 34 49 68 72 52 31 31 17 326 335 338 355 8 289 299 330 341 343 347 351 355 355 354 352 353 355 356 358 358 355 354 359 4 6 3 352 351 358 357 358 5 5 12 9 17 12 5 15 21 22 22
61 48 52 19 36 44 55 36 24 31 358 336 327 319 204 201 257 313 332 343 348 352 355 358 359 356 355 355 359 2 2 359 0 3 6 10 13 6 11 5 10 4 4 10 13 18 18 22 13 18 28 30 28 28
45 33 29 28 24 26 34 24 13 348 335 327 306 277 281 280 316 329 343 347 354 356 356 357 360 357 358 1 7 10 7 5 4 3 5 2 360 9 4 10 6 10 13 21 25 29 24 31 25 28 35 37 34 34
26 15 18 12 9 4 353 339 320 312 312 301 291 299 307 324 335 345 354 357 356 358 360 1 1 359 0 1 2 8 12 10 12 11 5 2 1 354 10 6 16 17 27 31 32 36 35 40 40 37 35 35 32 31
7 3 352 341 311 306 323 326 324 318 316 318 314 304 318 326 350 0 360 358 358 1 1 2 6 7 4 6 5 2 3 11 12 15 16 6 1 5 17 13 21 28 31 35 36 37 36 37 39 37 33 31 31 30
360 1 351 320 304 320 327 336 330 323 314 320 318 331 335 332 326 352 358 359 0 3 5 4 6 8 8 7 6 7 7 9 12 15 13 10 7 13 23 19 24 31 34 39 40 39 36 37 36 35 35 31 31 33
334 347 346 327 316 329 328 338 324 318 296 296 300 316 324 320 313 345 358 356 358 359 2 6 9 7 7 6 7 11 14 14 15 16 17 19 21 21 28 25 29 33 36 40 41 41 39 35 35 34 36 36 33 35
Height
1412 1414 1415 1416 1418 1418 1419 1420 1423 1424 1425 1430 1437 1443 1450 1455 1461 1466 1471 1474 1478 1496 1514 1514 1511 1513 1517 1518 1518 1525 1525 1526 1526 1528 1524 1522 1524 1530 1531 1538 1541 1541 1548 1546 1538 1543 1533 1536 1536 1538 1536 1533 1532 1529
1406 1406 1408 1408 1412 1413 1415 1418 1422 1426 1432 1438 1444 1449 1454 1459 1464 1468 1471 1478 1481 1489 1518 1519 1519 1520 1523 1524 1523 1524 1527 1528 1532 1530 1530 1528 1531 1529 1539 1544 1542 1550 1548 1549 1548 1538 1534 1534 1534 1533 1532 1529 1528 1526
1405 1406 1409 1411 1414 1418 1423 1428 1433 1438 1443 1447 1451 1456 1461 1465 1469 1473 1476 1482 1485 1501 1518 1522 1525 1528 1527 1525 1525 1527 1530 1532 1533 1534 1535 1535 1541 1541 1545 1545 1542 1547 1547 1551 1545 1536 1532 1532 1531 1530 1528 1525 1523 1522
1415 1417 1421 1424 1428 1431 1435 1438 1442 1447 1451 1455 1459 1463 1467 1470 1474 1478 1480 1487 1490 1500 1518 1536 1534 1530 1531 1529 1527 1528 1530 1533 1535 1536 1536 1538 1542 1544 1547 1549 1548 1547 1546 1547 1543 1532 1529 1526 1526 1525 1523 1521 1518 1515
1429 1431 1433 1435 1438 1441 1443 1447 1452 1455 1458 1462 1466 1470 1474 1477 1480 1483 1486 1491 1494 1499 1516 1533 1534 1535 1534 1533 1531 1531 1533 1534 1535 1538 1540 1546 1545 1547 1546 1548 1549 1543 1544 1549 1539 1532 1531 1524 1522 1520 1517 1513 1509 1506
1440 1442 1443 1445 1447 1450 1452 1455 1458 1463 1466 1470 1474 1477 1481 1483 1486 1487 1491 1499 1499 1502 1511 1531 1541 1540 1538 1537 1535 1535 1535 1536 1537 1541 1545 1548 1549 1550 1552 1550 1541 1539 1538 1536 1531 1528 1525 1518 1514 1511 1507 1503 1500 1497
1450 1451 1453 1455 1456 1459 1461 1464 1467 1469 1472 1476 1479 1482 1485 1487 1489 1490 1502 1507 1505 1506 1514 1530 1540 1543 1540 1541 1540 1540 1539 1539 1541 1545 1548 1549 1550 1551 1551 1555 1536 1534 1531 1528 1525 1523 1515 1510 1504 1502 1498 1494 1490 1486
1458 1460 1461 1463 1466 1468 1470 1473 1475 1478 1480 1483 1485 1487 1490 1492 1495 1499 1505 1509 1509 1508 1517 1533 1544 1546 1545 1545 1545 1544 1544 1545 1546 1549 1550 1550 1550 1549 1552 1534 1531 1529 1525 1521 1517 1515 1507 1501 1496 1491 1488 1484 1478 1473
1465 1467 1470 1473 1475 1477 1479 1481 1483 1484 1486 1489 1491 1494 1497 1497 1503 1510 1512 1513 1512 1517 1530 1547 1554 1556 1551 1550 1549 1549 1548 1548 1550 1549 1551 1552 1545 1549 1530 1527 1525 1523 1520 1514 1509 1505 1500 1494 1487 1482 1478 1473 1469 1463
1474 1476 1479 1481 1483 1485 1487 1489 1490 1492 1494 1496 1498 1499 1509 1514 1514 1515 1517 1518 1522 1532 1544 1558 1559 1559 1558 1554 1553 1552 1551 1553 1557 1554 1552 1550 1542 1526 1523 1521 1519 1516 1513 1508 1501 1492 1490 1484 1480 1474 1469 1465 1461 1455
1482 1485 1487 1489 1492 1493 1495 1496 1497 1498 1499 1499 1502 1510 1517 1517 1519 1521 1529 1537 1546 1555 1562 1565 1565 1563 1561 1561 1560 1559 1559 1555 1563 1557 1555 1551 1543 1522 1519 1517 1515 1510 1504 1498 1493 1486 1481 1476 1470 1464 1458 1456 1452 1447
1491 1493 1495 1497 1499 1500 1501 1502 1501 1501 1502 1506 1510 1515 1520 1523 1527 1535 1552 1558 1563 1572 1570 1569 1568 1566 1565 1563 1562 1560 1561 1558 1563 1556 1558 1557 1525 1519 1516 1512 1506 1501 1496 1491 1486 1479 1473 1468 1462 1456 1450 1444 1440 1436
1498 1499 1502 1504 1505 1505 1505 1507 1507 1508 1510 1511 1514 1522 1532 1542 1551 1564 1576 1574 1575 1575 1574 1572 1571 1568 1567 1565 1564 1563 1565 1565 1557 1561 1554 1532 1518 1516 1512 1506 1499 1495 1489 1482 1476 1470 1465 1458 1453 1448 1440 1435 1431 1426
1504 1507 1509 1510 1511 1511 1512 1512 1511 1512 1513 1517 1528 1548 1556 1570 1575 1578 1578 1578 1578 1576 1574 1572 1570 1569 1568 1566 1565 1568 1562 1562 1566 1560 1541 1522 1517 1511 1506 1500 1493 1484 1479 1473 1467 1460 1454 1448 1442 1437 1432 1426 1421 1415
1511 1513 1514 1514 1515 1515 1514 1514 1514 1515 1518 1531 1543 1569 1577 1580 1580 1580 1580 1578 1578 1576 1574 1572 1571 1571 1568 1568 1567 1566 1566 1564 1552 1543 1527 1519 1513 1506 1498 1492 1485 1478 1471 1464 1458 1452 1445 1439 1433 1427 1422 1417 1413 1407
1517 1517 1518 1519 1518 1517 1517 1518 1518 1518 1532 1548 1566 1577 1581 1581 1583 1582 1580 1579 1577 1574 1574 1574 1572 1572 1575 1575 1572 1569 1572 1559 1541 1533 1524 1516 1506 1499 1492 1485 1478 1471 1464 1456 1450 1444 1437 1431 1426 1419 1413 1409 1404 1400
1523 1523 1529 1529 1529 1529 1527 1523 1525 1536 1554 1571 1584 1583 1584 1585 1585 1582 1580 1579 1577 1576 1576 1575 1579 1580 1576 1575 1568 1565 1558 1546 1538 1526 1518 1511 1503 1493 1485 1477 1469 1462 1455 1449 1443 1436 1430 1424 1418 1412 1405 1400 1396 1392
1530 1536 1537 1537 1538 1536 1532 1533 1543 1564 1578 1586 1587 1587 1587 1586 1585 1584 1582 1580 1579 1578 1578 1579 1578 1579 1577 1575 1563 1555 1548 1540 1533 1523 1512 1503 1495 1487 1480 1471 1463 1457 1449 1442 1436 1429 1423 1417 1411 1405 1399 1394 1389 1384
1542 1543 1544 1544 1543 1540 1546 1559 1565 1580 1590 1590 1591 1590 1589 1589 1588 1586 1584 1582 1580 1579 1579 1578 1578 1577 1572 1567 1559 1550 1543 1535 1524 1513 1504 1496 1489 1481 1472 1464 1458 1451 1444 1437 1430 1423 1417 1412 1405 1399 1393 1388 1382 1377
1551 1552 1553 1551 1551 1547 1560 1576 1580 1587 1594 1597 1595 1594 1593 1592 1591 1588 1586 1583 1581 1580 1580 1579 1577 1573 1568 1560 1555 1547 1538 1530 1521 1508 1496 1489 1483 1475 1467 1460 1452 1444 1437 1431 1425 1419 1411 1405 1400 1394 1388 1383 1378 1371
1561 1562 1562 1560 1555 1559 1574 1585 1590 1595 1597 1598 1598 1597 1596 1594 1592 1590 1588 1586 1584 1583 1581 1578 1573 1567 1562 1555 1549 1542 1533 1526 1518 1510 1497 1482 1475 1470 1461 1454 1448 1441 1434 1427 1419 1411 1406 1400 1393 1387 1381 1378 1374 1368
1570 1571 1569 1569 1567 1576 1588 1595 1597 1600 1601 1601 1600 1599 1598 1596 1595 1592 1590 1587 1585 1584 1581 1576 1570 1564 1557 1550 1544 1537 1529 1519 1511 1503 1495 1486 1474 1464 1456 1450 1443 1437 1430 1423 1415 1408 1400 1395 1390 1384 1379 1375 1369 1363
1577 1576 1574 1576 1580 1590 1603 1601 1601 1603 1604 1604 1603 1602 1601 1600 1598 1595 1592 1590 1588 1584 1580 1575 1569 1563 1555 1546 1538 1532 1525 1517 1507 1498 1489 1481 1472 1464 1457 1449 1442 1434 1425 1417 1411 1405 1400 1394 1386 1381 1377 1371 1365 1361
1583 1581 1584 1589 1595 1603 1607 1607 1608 1608 1608 1609 1609 1609 1606 1603 1600 1597 1594 1591 1588 1584 1579 1573 1565 1556 1550 1544 1536 1529 1522 1514 1504 1495 1487 1477 1469 1462 1456 1447 1440 1433 1425 1416 1412 1404 1398 1392 1387 1381 1376 1370 1366 1361
1589 1598 1600 1604 1608 1609 1611 1613 1614 1613 1617 1616 1614 1612 1610 1607 1605 1602 1598 1592 1587 1583 1577 1571 1566 1560 1552 1542 1535 1528 1522 1513 1503 1492 1484 1478 1469 1460 1453 1447 1440 1433 1425 1416 1410 1404 1397 1392 1387 1381 1376 1371 1368 1362
1602 1610 1611 1613 1616 1614 1617 1620 1620 1622 1620 1619 1618 1616 1613 1612 1611 1605 1597 1594 1589 1584 1578 1572 1565 1555 1549 1545 1535 1525 1518 1511 1502 1494 1486 1478 1471 1462 1452 1443 1435 1431 1425 1419 1412 1405 1399 1394 1388 1383 1378 1373 1369 1364
1614 1619 1620 1620 1619 1620 1620 1622 1622 1622 1622 1623 1620 1617 1617 1618 1613 1601 1598 1595 1590 1586 1581 1575 1568 1560 1553 1545 1538 1531 1522 1512 1505 1497 1487 1480 1473 1466 1458 1449 1443 1436 1428 1421 1415 1408 1402 1397 1392 1387 1381 1377 1372 1367
1622 1624 1623 1624 1622 1622 1622 1622 1623 1623 1623 1623 1621 1620 1618 1614 1609 1603 1600 1596 1592 1586 1581 1575 1568 1561 1554 1548 1539 1527 1518 1510 1501 1494 1490 1482 1475 1467 1461 1455 1446 1440 1431 1425 1418 1412 1407 1402 1396 1390 1385 1380 1376 1372
1627 1627 1626 1625 1624 1624 1624 1625 1625 1624 1624 1622 1621 1617 1614 1610 1605 1602 1600 1596 1592 1587 1580 1573 1567 1561 1555 1547 1539 1531 1521 1510 1498 1487 1480 1473 1466 1463 1460 1454 1447 1440 1433 1426 1421 1417 1412 1407 1401 1395 1390 1386 1382 1377
1629 1628 1627 1626 1626 1625 1626 1626 1624 1623 1621 1620 1619 1615 1611 1607 1605 1603 1600 1596 1591 1586 1580 1574 1568 1559 1551 1543 1535 1530 1525 1517 1510 1502 1493 1484 1481 1476 1466 1458 1450 1444 1437 1431 1425 1420 1416 1410 1405 1400 1395 1390 1385 1380
1630 1629 1628 1627 1626 1626 1625 1624 1622 1620 1618 1617 1616 1614 1611 1607 1603 1602 1599 1596 1592 1586 1581 1575 1568 1562 1554 1546 1538 1530 1523 1519 1513 1507 1500 1496 1489 1480 1471 1464 1456 1450 1443 1437 1432 1426 1422 1416 1411 1406 1401 1396 1391 1386
1631 1630 1629 1627 1626 1625 1624 1623 1621 1619 1618 1616 1614 1612 1610 1607 1603 1601 1599 1595 1591 1587 1582 1577 1570 1564 1560 1555 1549 1542 1535 1526 1517 1509 1504 1498 1491 1483 1476 1470 1463 1456 1451 1444 1439 1433 1428 1423 1418 1413 1407 1403 1398 1393
1630 1630 1629 1628 1626 1625 1625 1624 1622 1621 1619 1617 1615 1612 1610 1608 1605 1602 1600 1596 1592 1587 1582 1578 1574 1569 1564 1557 1551 1543 1536 1530 1523 1516 1509 1502 1495 1488 1481 1475 1470 1464 1458 1451 1446 1441 1436 1431 1425 1420 1415 1410 1405 1400